TimeCST,TemperatureF,Dew PointF,Humidity,Sea Level PressureIn,VisibilityMPH,Wind Direction,Wind SpeedMPH,Gust SpeedMPH,PrecipitationIn,Events,Conditions,WindDirDegrees,DateUTC
12:15 AM,54.9,52.0,90,30.20,10.0,SSE,6.9,-,N/A,,Scattered Clouds,160,2013-02-02 06:15:00
12:35 AM,55.0,52.7,92,30.20,10.0,SSE,4.6,-,N/A,,Clear,160,2013-02-02 06:35:00
12:55 AM,56.1,54.1,93,30.20,10.0,SSE,4.6,-,N/A,,Clear,160,2013-02-02 06:55:00
1:15 AM,56.7,54.7,93,30.20,10.0,SSE,3.5,-,N/A,,Clear,160,2013-02-02 07:15:00
1:35 AM,57.6,55.9,94,30.20,10.0,SSE,3.5,-,N/A,,Clear,150,2013-02-02 07:35:00
1:55 AM,57.9,56.3,94,30.20,10.0,SE,3.5,-,N/A,,Mostly Cloudy,140,2013-02-02 07:55:00
2:15 AM,57.0,55.2,94,30.19,10.0,SE,5.8,-,N/A,,Overcast,140,2013-02-02 08:15:00
2:35 AM,56.8,55.0,94,30.19,10.0,SE,3.5,-,N/A,,Overcast,140,2013-02-02 08:35:00
2:55 AM,56.8,54.9,93,30.18,10.0,North,-9999.0,-,N/A,,Mostly Cloudy,0,2013-02-02 08:55:00
3:15 AM,56.1,53.8,92,30.19,10.0,Calm,Calm,-,N/A,,Mostly Cloudy,0,2013-02-02 09:15:00
3:35 AM,56.1,54.0,92,30.19,10.0,Calm,Calm,-,N/A,,Mostly Cloudy,0,2013-02-02 09:35:00
3:55 AM,56.7,54.9,94,30.19,10.0,Calm,Calm,-,N/A,,Mostly Cloudy,0,2013-02-02 09:55:00
4:15 AM,57.7,56.3,95,30.18,10.0,South,4.6,-,N/A,,Scattered Clouds,180,2013-02-02 10:15:00
4:35 AM,54.3,52.7,94,30.18,0.5,South,4.6,-,N/A,Fog,Fog,170,2013-02-02 10:35:00
4:55 AM,54.0,52.5,95,30.18,10.0,SSE,4.6,-,N/A,,Clear,150,2013-02-02 10:55:00
5:15 AM,56.1,54.9,96,30.18,10.0,SSE,3.5,-,N/A,,Clear,150,2013-02-02 11:15:00
5:35 AM,56.5,55.2,96,30.18,10.0,SSE,4.6,-,N/A,,Scattered Clouds,150,2013-02-02 11:35:00
6:15 AM,54.3,52.9,95,30.19,10.0,SSE,5.8,-,N/A,,Mostly Cloudy,150,2013-02-02 12:15:00
6:35 AM,55.4,54.0,95,30.20,10.0,SSE,4.6,-,N/A,,Mostly Cloudy,150,2013-02-02 12:35:00
6:55 AM,56.1,54.5,94,30.20,10.0,SE,5.8,-,N/A,,Mostly Cloudy,140,2013-02-02 12:55:00
7:15 AM,56.8,55.4,95,30.20,10.0,SE,5.8,-,N/A,,Mostly Cloudy,140,2013-02-02 13:15:00
7:35 AM,57.7,56.3,95,30.21,10.0,ESE,4.6,-,N/A,,Mostly Cloudy,120,2013-02-02 13:35:00
7:55 AM,59.0,57.2,94,30.22,10.0,ESE,4.6,-,N/A,,Overcast,110,2013-02-02 13:55:00
8:15 AM,61.3,59.0,92,30.23,10.0,ESE,3.5,-,N/A,,Mostly Cloudy,110,2013-02-02 14:15:00
8:35 AM,63.7,60.4,89,30.23,10.0,SE,4.6,-,N/A,,Scattered Clouds,130,2013-02-02 14:35:00
8:55 AM,66.9,60.8,81,30.23,10.0,SSE,4.6,-,N/A,,Clear,150,2013-02-02 14:55:00
9:15 AM,69.4,59.5,71,30.23,10.0,SE,6.9,-,N/A,,Clear,140,2013-02-02 15:15:00
9:35 AM,71.2,58.8,65,30.24,10.0,SE,9.2,-,N/A,,Clear,130,2013-02-02 15:35:00
9:55 AM,72.7,57.9,60,30.24,10.0,SSE,9.2,-,N/A,,Mostly Cloudy,150,2013-02-02 15:55:00
10:15 AM,73.0,57.6,58,30.24,10.0,SSE,9.2,-,N/A,,Scattered Clouds,150,2013-02-02 16:15:00
10:35 AM,73.8,56.7,55,30.25,10.0,SSE,10.4,-,N/A,,Clear,160,2013-02-02 16:35:00
10:55 AM,74.1,55.9,53,30.24,10.0,South,10.4,-,N/A,,Scattered Clouds,170,2013-02-02 16:55:00
11:15 AM,73.8,56.1,54,30.24,10.0,SSE,10.4,-,N/A,,Mostly Cloudy,150,2013-02-02 17:15:00
11:35 AM,73.8,56.5,55,30.23,10.0,SSE,10.4,-,N/A,,Mostly Cloudy,160,2013-02-02 17:35:00
11:55 AM,74.1,56.7,54,30.23,10.0,SSE,10.4,-,N/A,,Mostly Cloudy,160,2013-02-02 17:55:00
12:15 PM,75.2,56.1,51,30.22,10.0,SE,10.4,-,N/A,,Scattered Clouds,130,2013-02-02 18:15:00
12:35 PM,75.7,56.5,51,30.21,10.0,SE,9.2,-,N/A,,Scattered Clouds,130,2013-02-02 18:35:00
12:55 PM,76.1,57.0,51,30.21,10.0,South,9.2,-,N/A,,Scattered Clouds,170,2013-02-02 18:55:00
1:15 PM,76.8,57.4,51,30.20,10.0,SSE,9.2,-,N/A,,Scattered Clouds,150,2013-02-02 19:15:00
1:35 PM,77.2,57.4,50,30.19,10.0,SSE,9.2,-,N/A,,Scattered Clouds,150,2013-02-02 19:35:00
1:55 PM,77.0,57.4,51,30.18,10.0,SE,11.5,16.1,N/A,,Scattered Clouds,130,2013-02-02 19:55:00
2:15 PM,76.5,57.6,52,30.18,10.0,SE,10.4,16.1,N/A,,Scattered Clouds,140,2013-02-02 20:15:00
2:35 PM,76.5,57.6,52,30.17,10.0,SSE,9.2,18.4,N/A,,Clear,160,2013-02-02 20:35:00
2:55 PM,76.1,57.6,53,30.18,10.0,SSE,12.7,-,N/A,,Clear,150,2013-02-02 20:55:00
3:15 PM,76.3,57.6,52,30.17,10.0,SE,10.4,-,N/A,,Clear,140,2013-02-02 21:15:00
3:35 PM,75.9,57.4,52,30.17,10.0,SE,13.8,-,N/A,,Clear,130,2013-02-02 21:35:00
3:55 PM,75.4,57.4,53,30.16,10.0,SSE,11.5,-,N/A,,Clear,150,2013-02-02 21:55:00
4:15 PM,74.8,56.8,53,30.16,10.0,SE,12.7,-,N/A,,Clear,130,2013-02-02 22:15:00
4:35 PM,74.5,56.5,53,30.16,10.0,ESE,13.8,-,N/A,,Clear,120,2013-02-02 22:35:00
4:55 PM,73.8,55.6,53,30.16,10.0,ESE,12.7,-,N/A,,Clear,120,2013-02-02 22:55:00
5:15 PM,72.9,55.9,55,30.17,10.0,ESE,11.5,-,N/A,,Clear,110,2013-02-02 23:15:00
5:35 PM,72.0,56.8,59,30.17,10.0,ESE,11.5,-,N/A,,Clear,120,2013-02-02 23:35:00
5:55 PM,70.2,57.9,65,30.17,10.0,ESE,10.4,-,N/A,,Clear,110,2013-02-02 23:55:00
6:15 PM,68.2,58.5,71,30.18,10.0,ESE,6.9,-,N/A,,Clear,120,2013-02-03 00:15:00
6:35 PM,65.8,58.8,78,30.18,10.0,SE,6.9,-,N/A,,Clear,130,2013-02-03 00:35:00
6:55 PM,64.4,59.2,83,30.19,10.0,SE,5.8,-,N/A,,Clear,130,2013-02-03 00:55:00
7:15 PM,63.3,59.0,86,30.20,10.0,ESE,4.6,-,N/A,,Clear,110,2013-02-03 01:15:00
7:35 PM,63.0,59.0,87,30.20,10.0,SE,4.6,-,N/A,,Clear,130,2013-02-03 01:35:00
7:55 PM,63.0,59.7,89,30.21,10.0,SE,4.6,-,N/A,,Clear,130,2013-02-03 01:55:00
8:15 PM,62.6,59.7,90,30.22,10.0,ESE,3.5,-,N/A,,Clear,120,2013-02-03 02:15:00
8:35 PM,62.6,60.3,92,30.23,10.0,Calm,Calm,-,N/A,,Clear,0,2013-02-03 02:35:00
8:55 PM,62.4,60.3,93,30.23,10.0,SSE,3.5,-,N/A,,Clear,150,2013-02-03 02:55:00
9:15 PM,61.9,60.1,94,30.23,10.0,SE,3.5,-,N/A,,Clear,140,2013-02-03 03:15:00
9:35 PM,61.2,59.7,95,30.23,1.0,ESE,3.5,-,N/A,,Mist,120,2013-02-03 03:35:00
9:55 PM,60.8,59.4,95,30.23,7.0,East,3.5,-,N/A,,Clear,100,2013-02-03 03:55:00
10:15 PM,61.7,60.3,95,30.23,10.0,ESE,3.5,-,N/A,,Clear,120,2013-02-03 04:15:00
10:35 PM,61.2,59.5,94,30.24,1.8,ESE,3.5,-,N/A,,Mist,120,2013-02-03 04:35:00
10:55 PM,60.3,59.0,96,30.24,0.2,SE,3.5,-,N/A,Fog,Fog,140,2013-02-03 04:55:00
11:15 PM,60.3,59.0,96,30.24,0.2,Calm,Calm,-,N/A,Fog,Fog,0,2013-02-03 05:15:00
11:35 PM,59.4,57.9,95,30.24,0.2,SSE,3.5,-,N/A,Fog,Fog,160,2013-02-03 05:35:00
11:55 PM,58.6,57.4,96,30.24,0.2,Calm,Calm,-,N/A,Fog,Fog,0,2013-02-03 05:55:00